Regional Weather Roundup
Issued by NWS Mt. Holly, NJ

Home | Current Version | Previous Version | Text Only | Print | Product List | Glossary On
Versions: 1 2 3 4 5 6 7 8 9 10 11 12 13 14 15 16 17 18 19 20 21 22 23 24 25 26 27 28
000
ASUS41 KPHI 022112
RWRPHI

REGIONAL WEATHER ROUNDUP
NATIONAL WEATHER SERVICE MOUNT HOLLY NJ
400 PM EST FRI DEC 02 2016

NOTE:  "FAIR" INDICATES FEW OR NO CLOUDS BELOW 12,000 FEET WITH NO
SIGNIFICANT WEATHER AND/OR OBSTRUCTIONS TO VISIBILITY.

 * = STATION DOES NOT REPORT PRECIPITATION (E.G. RAIN, SNOW, ETC.)
        OR FOG.

NJZ015>026-022200-
SOUTHERN NEW JERSEY

CITY           SKY/WX    TMP DP  RH WIND       PRES   REMARKS
POMONA         CLEAR     49  28  44 W16       29.95R
WILDWOOD*      CLEAR     49  32  52 W13G18    29.98S
MILLVILLE      CLEAR     48  31  51 W13G22    29.98R
WRIGHTSTOWN    CLOUDY    49  28  43 W13       29.90R
MOUNT HOLLY    MOCLDY    49  26  41 W14G22    29.94R
TRENTON        CLOUDY    49  26  41 W16G23    29.92R

$$
NJZ001>014-022200-
NORTHERN NEW JERSEY

CITY           SKY/WX    TMP DP  RH WIND       PRES   REMARKS
SUSSEX         PTCLDY    47  28  47 SW8       29.86R
ANDOVER*         N/A     46  27  47 SW8       29.88R
MORRISTOWN     MOCLDY    50  28  43 NW15G21   29.88R
NEWARK         CLOUDY    50  28  42 W15G25    29.88R
TETERBORO      CLOUDY    50  27  40 W14G21    29.86R
CALDWELL       CLOUDY    50  26  39 W15G22    29.88R
SOMERVILLE     MOCLDY    49  26  41 VRB7G17   29.88R
ALLAIRE*       CLOUDY   N/A N/A N/A W9        29.91R
TOMS RIVER*    CLOUDY    49  31  49 W10       29.93R

$$
PAZ043-044-047-054-055-060>062-066>071-022200-
EASTERN PENNSYLVANIA

CITY           SKY/WX    TMP DP  RH WIND       PRES   REMARKS
PHILADELPHIA   PTCLDY    49  26  41 W23G30    29.96R
NORTH PHILA    CLOUDY    50  28  42 W16G25    29.95R
BLUE BELL*     MOCLDY    45  28  53 W10G17    29.94R
DOYLESTOWN     MOCLDY    49  28  44 W16G24    29.92R
QUAKERTOWN*    CLOUDY    46  27  46 W13       29.94R
PERKASIE*      CLOUDY    45  27  49 W16G23    29.93S
POTTSTOWN      PTCLDY    46  27  47 W10G20    29.96R
LANCASTER      CLEAR     44  29  55 W20       29.98S
COATESVILLE    PTCLDY    43  27  52 W15       29.98S
READING        MOCLDY    45  26  47 W12G24    29.95R
ALLENTOWN      CLOUDY    47  28  47 W10G21    29.92R
MOUNT POCONO   CLOUDY    38  26  62 W15G29    29.84R WCI  29
HAZLETON       CLOUDY    39  28  65 W6        29.92S WCI  35
LEHIGHTON        N/A     45  28  53 W8G17     29.93R
WILKES BARRE   CLOUDY    44  30  57 W12       29.88R

$$
DEZALL-MDZ008-012-015-019-020-022200-
DELAWARE AND EASTERN MARYLAND

CITY           SKY/WX    TMP DP  RH WIND       PRES   REMARKS
WILMINGTON     CLOUDY    47  27  45 W20G35    30.00R
DOVER          PTCLDY    49  30  48 W20G30    29.98R
GEORGETOWN     PTCLDY    51  29  42 NW9G18    30.00R
EASTON         CLEAR     50  28  43 NW15      30.05R
ABERDEEN       MOCLDY    47  28  48 W15       30.03R
PATUXENT       PTCLDY    52  29  41 W13       30.02R
OCEAN CITY     CLEAR     50  29  44 NW9G22    30.00R
WALLOPS ISLAND CLEAR     50  32  50 W9        30.03R
CAMBRIDGE      CLEAR     50  32  50 NW8       30.01S
SALISBURY      CLEAR     49  30  48 NW7       30.01R

$$
PAZ001-021-NYZ056-072-MDZ011-DCZ001-022200-
OTHER NEARBY LOCATIONS

CITY           SKY/WX    TMP DP  RH WIND       PRES   REMARKS
HARRISBURG     MOCLDY    44  29  55 W15G25    30.00R
STATE COLLEGE  CLOUDY    39  28  65 W13G25    29.98R WCI  32
WILLIAMSPORT   CLOUDY    44  30  57 W12       29.93R
BINGHAMTON     FLURRIES  34  32  92 W15       29.84R WCI  24
NEW YORK CITY  CLOUDY    50  28  42 W9        29.89R
BALTIMORE      PTCLDY    46  28  49 W22G30    30.04R
WASHINGTON DC  PTCLDY    50  30  46 NW9G21    30.05R

$$




USA.gov is the U.S. government's official web portal to all federal, state and local government web resources and services.